Date String (YYYY-MM-DD hh:mm:ss) UTC,Instrument flags,absolute air pressure of the measurement (hPa),sample flow rate (lpm),inlet stack bypass flow (lpm),air temperature of the measurement (°C),ambient temperature measured by the external sensor (°C),aerosol sample conditioner tube jacket temperature (°C),OPC LED temperature (°C),internal box temperature (°C),relative humidity of the measurement (%),span deviation,mass concentration of particles derived from Lorenz-Mie calculation of OPC scattering (μg/m³),mass concentration of particles derived from Lorenz-Mie calculation of OPC scattering (μg/m³),mass concentration of particles derived from Lorenz-Mie calculation of OPC scattering (μg/m³)
DateTimeUTC,F1_M11,P_M11,Q1_M11,Q2_M11,T1_M11,T2_M11,T3_M11,T4_M11,T5_M11,U1_M11,ZSPAN_M11,X0_M11,X2_M11,X1_M11
2024-04-26 09:00:00,SystemResetWarning,0816.9,5.00,000.00,024.7,024.0,000.0,033.2,026.6,020.9,0000.0,0004.63,0001.98,0001.50
2024-04-26 09:01:00,SystemResetWarning,0816.9,5.00,000.00,024.7,024.0,000.0,033.2,026.6,020.5,0000.0,0004.60,0001.94,0001.46
2024-04-26 09:02:00,SystemResetWarning,0816.8,4.99,000.00,024.7,024.0,000.0,033.2,026.6,022.1,0000.0,0004.50,0001.89,0001.43
2024-04-26 09:03:00,SystemResetWarning,0816.9,4.99,000.00,024.7,024.0,000.0,033.2,026.6,022.1,0000.0,0004.63,0001.88,0001.43
2024-04-26 09:04:00,SystemResetWarning,0816.9,5.01,000.00,024.7,024.0,000.0,033.2,026.6,022.5,0000.0,0003.82,0001.95,0001.44
2024-04-26 09:05:00,SystemResetWarning,0816.9,5.01,000.00,024.7,024.0,000.0,033.2,026.6,021.7,0000.0,0003.59,0002.00,0001.45
2024-04-26 09:06:00,SystemResetWarning,0816.9,4.99,000.00,024.7,024.0,000.0,033.2,026.6,021.7,0000.0,0003.51,0002.03,0001.44
2024-04-26 09:07:00,SystemResetWarning,0816.9,4.99,000.00,024.7,024.0,000.0,033.2,026.6,022.2,0000.0,0003.66,0002.09,0001.45
2024-04-26 09:08:00,SystemResetWarning,0816.9,5.00,000.00,024.7,024.0,000.0,033.2,026.6,022.1,0000.0,0003.61,0002.07,0001.45
2024-04-26 09:09:00,SystemResetWarning,0816.9,5.01,000.00,024.7,024.0,000.0,033.2,026.6,021.7,0000.0,0003.53,0002.04,0001.44
2024-04-26 09:10:00,SystemResetWarning,0816.9,5.01,000.00,024.7,024.0,000.0,033.2,026.6,022.2,0000.0,0003.74,0002.07,0001.44
2024-04-26 09:11:00,SystemResetWarning,0816.9,5.01,000.00,024.7,024.0,000.0,033.2,026.6,022.9,0000.0,0003.77,0002.11,0001.46
2024-04-26 09:12:00,SystemResetWarning,0816.9,5.00,000.00,024.8,024.1,000.0,033.2,026.6,022.7,0000.0,0005.26,0002.11,0001.47
2024-04-26 09:13:00,SystemResetWarning,0816.9,4.99,000.00,024.8,024.1,000.0,033.3,026.6,022.5,0000.0,0005.54,0002.18,0001.48
2024-04-26 09:14:00,SystemResetWarning,0817.0,5.00,000.00,024.8,024.1,000.0,033.3,026.7,022.3,0000.0,0005.36,0002.17,0001.48
2024-04-26 09:15:00,SystemResetWarning,0817.0,5.02,000.00,024.8,024.1,000.0,033.3,026.7,022.7,0000.0,0005.30,0002.13,0001.46
2024-04-26 09:16:00,SystemResetWarning,0817.0,5.01,000.00,024.8,024.1,000.0,033.3,026.7,022.8,0000.0,0005.35,0002.14,0001.46
2024-04-26 09:17:00,SystemResetWarning,0816.9,5.00,000.00,024.8,024.1,000.0,033.3,026.7,022.6,0000.0,0005.43,0002.17,0001.48
2024-04-26 09:18:00,SystemResetWarning,0816.9,4.99,000.00,024.8,024.1,000.0,033.3,026.7,022.6,0000.0,0005.37,0002.15,0001.47
2024-04-26 09:19:00,SystemResetWarning,0816.9,5.00,000.00,024.8,024.1,000.0,033.3,026.7,022.3,0000.0,0005.44,0002.17,0001.47
2024-04-26 09:20:00,SystemResetWarning,0816.9,5.00,000.00,024.8,024.1,000.0,033.3,026.7,022.1,0000.0,0005.43,0002.16,0001.47
2024-04-26 09:21:00,SystemResetWarning,0816.9,5.01,000.00,024.8,024.1,000.0,033.3,026.7,021.9,0000.0,0005.37,0002.17,0001.47
2024-04-26 09:22:00,SystemResetWarning,0816.9,5.00,000.00,024.8,024.1,000.0,033.3,026.7,021.9,0000.0,0005.32,0002.16,0001.45
2024-04-26 09:23:00,SystemResetWarning,0816.8,4.99,000.00,024.8,024.1,000.0,033.3,026.7,022.3,0000.0,0004.16,0002.18,0001.45
2024-04-26 09:24:00,SystemResetWarning,0816.9,5.00,000.00,024.8,024.1,000.0,033.3,026.7,022.3,0000.0,0003.78,0002.19,0001.46
2024-04-26 09:25:00,SystemResetWarning,0816.9,5.00,000.00,024.8,024.1,000.0,033.3,026.7,022.2,0000.0,0003.76,0002.19,0001.47
2024-04-26 09:26:00,SystemResetWarning,0816.8,5.00,000.00,024.8,024.1,000.0,033.3,026.7,022.4,0000.0,0003.96,0002.27,0001.49
2024-04-26 09:27:00,SystemResetWarning,0816.8,5.01,000.00,024.8,024.1,000.0,033.3,026.7,022.3,0000.0,0003.91,0002.28,0001.49
2024-04-26 09:28:00,SystemResetWarning,0816.9,5.00,000.00,024.8,024.1,000.0,033.3,026.7,022.2,0000.0,0003.76,0002.24,0001.49
2024-04-26 09:29:00,SystemResetWarning,0816.9,4.99,000.00,024.8,024.1,000.0,033.3,026.7,022.3,0000.0,0003.81,0002.24,0001.50
2024-04-26 09:30:00,SystemResetWarning,0816.9,5.00,000.00,024.8,024.1,000.0,033.3,026.7,022.2,0000.0,0003.89,0002.26,0001.51
2024-04-26 09:31:00,SystemResetWarning,0816.8,5.00,000.00,024.8,024.1,000.0,033.4,026.7,022.2,0000.0,0004.07,0002.27,0001.51
2024-04-26 09:32:00,SystemResetWarning,0816.9,4.99,000.00,024.9,024.1,000.0,033.4,026.7,022.1,0000.0,0005.10,0002.30,0001.52
2024-04-26 09:33:00,SystemResetWarning,0816.9,5.00,000.00,024.9,024.1,000.0,033.4,026.7,022.3,0000.0,0005.13,0002.30,0001.53
2024-04-26 09:34:00,SystemResetWarning,0816.8,5.01,000.00,024.9,024.1,000.0,033.4,026.7,022.5,0000.0,0005.30,0002.32,0001.55
2024-04-26 09:35:00,SystemResetWarning,0816.8,5.01,000.00,024.9,024.1,000.0,033.4,026.7,022.8,0000.0,0005.81,0002.34,0001.57
2024-04-26 09:36:00,SystemResetWarning,0816.8,4.99,000.00,024.9,024.1,000.0,033.4,026.7,022.8,0000.0,0006.04,0002.36,0001.57
2024-04-26 09:37:00,SystemResetWarning,0816.7,4.99,000.00,024.9,024.1,000.0,033.4,026.7,022.7,0000.0,0006.18,0002.34,0001.57
2024-04-26 09:38:00,SystemResetWarning,0816.7,4.99,000.00,024.9,024.1,000.0,033.4,026.7,022.6,0000.0,0006.21,0002.34,0001.58
2024-04-26 09:39:00,SystemResetWarning,0816.7,5.00,000.00,024.9,024.1,000.0,033.4,026.7,022.5,0000.0,0006.23,0002.31,0001.58
2024-04-26 09:40:00,SystemResetWarning,0816.7,5.01,000.00,024.9,024.1,000.0,033.4,026.7,022.4,0000.0,0006.15,0002.30,0001.58
2024-04-26 09:41:00,SystemResetWarning,0816.7,5.02,000.00,024.9,024.1,000.0,033.4,026.7,022.6,0000.0,0006.05,0002.29,0001.58
2024-04-26 09:42:00,SystemResetWarning,0816.7,5.00,000.00,024.9,024.1,000.0,033.4,026.7,022.8,0000.0,0005.83,0002.27,0001.58
2024-04-26 09:43:00,SystemResetWarning,0816.6,4.99,000.00,024.9,024.1,000.0,033.4,026.7,022.9,0000.0,0004.78,0002.27,0001.59
2024-04-26 09:44:00,SystemResetWarning,0816.6,5.00,000.00,024.9,024.1,000.0,033.4,026.7,023.0,0000.0,0004.74,0002.28,0001.59
2024-04-26 09:45:00,SystemResetWarning,0816.6,5.01,000.00,024.9,024.1,000.0,033.4,026.7,022.9,0000.0,0004.52,0002.26,0001.59
2024-04-26 09:46:00,SystemResetWarning,0816.6,5.01,000.00,024.9,024.1,000.0,033.4,026.7,022.9,0000.0,0004.08,0002.26,0001.58
2024-04-26 09:47:00,SystemResetWarning,0816.6,5.01,000.00,024.9,024.1,000.0,033.4,026.7,023.1,0000.0,0003.82,0002.24,0001.59
2024-04-26 09:48:00,SystemResetWarning,0816.6,5.00,000.00,024.9,024.1,000.0,033.4,026.7,023.1,0000.0,0003.42,0002.20,0001.60
2024-04-26 09:49:00,SystemResetWarning,0816.6,4.99,000.00,024.9,024.1,000.0,033.4,026.7,023.0,0000.0,0003.34,0002.17,0001.59
2024-04-26 09:50:00,SystemResetWarning,0816.5,5.00,000.00,024.9,024.1,000.0,033.4,026.7,023.1,0000.0,0003.34,0002.19,0001.59
2024-04-26 09:51:00,SystemResetWarning,0816.5,5.00,000.00,024.9,024.2,000.0,033.4,026.8,023.3,0000.0,0003.39,0002.23,0001.60
2024-04-26 09:52:00,SystemResetWarning,0816.5,5.00,000.00,024.9,024.2,000.0,033.4,026.8,023.3,0000.0,0003.47,0002.26,0001.61
2024-04-26 09:53:00,SystemResetWarning,0816.5,5.00,000.00,024.9,024.2,000.0,033.4,026.8,023.1,0000.0,0003.93,0002.31,0001.63
2024-04-26 09:54:00,SystemResetWarning,0816.5,5.01,000.00,024.9,024.2,000.0,033.4,026.8,022.9,0000.0,0004.03,0002.31,0001.63
2024-04-26 09:55:00,SystemResetWarning,0816.5,5.00,000.00,024.9,024.2,000.0,033.4,026.8,023.2,0000.0,0004.21,0002.35,0001.63
2024-04-26 09:56:00,SystemResetWarning,0816.5,5.00,000.00,024.9,024.3,000.0,033.4,026.8,023.1,0000.0,0004.40,0002.41,0001.64
2024-04-26 09:57:00,SystemResetWarning,0816.5,5.00,000.00,024.9,024.3,000.0,033.4,026.8,023.3,0000.0,0004.36,0002.38,0001.62
2024-04-26 09:58:00,SystemResetWarning,0816.5,5.01,000.00,025.0,024.3,000.0,033.4,026.8,023.3,0000.0,0004.57,0002.39,0001.61
2024-04-26 09:59:00,SystemResetWarning,0816.4,4.99,000.00,025.0,024.3,000.0,033.4,026.8,023.2,0000.0,0004.51,0002.35,0001.59
